Flag Weather past 2 weeks in Guilin, Guangxi, China

Now
57 °F

Fog.


Feels Like: 57 °F
Forecast: 62 / 76 °F
Wind: No wind

Location: Guilin Airport

Current Time: Nov 27, 2014 at 8:36:25 AM

Latest Report: Nov 27, 2014 at 7:00 AM


Visibility: 2 mi

Pressure: 29.95 "Hg

Humidity: 94%

Dew point: 55 °F

Location of GuilinLocation

Historic Weather in Guilin — Graph

°F

Guilin temperature yesterday

Maximum temperature yesterday: 63 °F (at 2:00 PM)
Minimum temperature yesterday: 55 °F (at 5:00 AM)
Average temperature yesterday: 59 °F

Past Weeks' High & Low Weather Summary

 TemperatureHumidityPressure
High82 °F (Nov 24, 3:00 PM)100% (Nov 21, 6:00 AM)30.36 "Hg (Nov 21, 6:00 AM)
Low48 °F (Nov 14, 7:00 AM)33% (Nov 14, 2:00 PM)29.89 "Hg (Nov 24, 3:00 PM)
Average61 °F75%30.13 "Hg
* Reported Nov 12 7:00 AM — Nov 27 7:00 AM, Guilin, Weather by CustomWeather, © 2014

Note: Actual official high and low records may vary slightly from our data, if they occured in-between our weather recording intervals... More about our weather records

Advertising

Guilin weather history for previous 24 hours

 ConditionsComfort  
Time TempWeatherWind HumidityBarometerVisibility
7:00 AM
Nov 27
57 °FFog.No wind94%29.95 "Hg1 mi
6:00 AM59 °FFog.No wind88%29.95 "Hg1 mi
5:00 AM57 °FFog.1 mph94%29.92 "Hg2 mi
4:00 AM57 °FFog.1 mph88%29.92 "Hg2 mi
3:00 AM57 °FFog.1 mph88%29.92 "Hg2 mi
2:00 AM57 °FFog.3 mph94%29.95 "Hg2 mi
1:00 AM57 °FFog.No wind88%29.95 "Hg2 mi
12:00 AM59 °FFog.1 mph88%29.95 "Hg2 mi
10:00 PM
Nov 26
59 °FFog.No wind88%29.95 "Hg3 mi
9:00 PM59 °FPassing clouds.1 mph82%29.95 "Hg4 mi
8:00 PM59 °FPassing clouds.1 mph82%29.95 "HgN/A
7:00 PM61 °FPassing clouds.3 mph77%29.92 "HgN/A
6:00 PM61 °FPassing clouds.3 mph72%29.92 "HgN/A
5:00 PM63 °FScattered clouds.6 mph73%29.89 "HgN/A
4:00 PM63 °FMostly cloudy.6 mph68%29.89 "HgN/A
3:00 PM63 °FMostly cloudy.3 mph68%29.92 "Hg5 mi
2:00 PM63 °FMostly cloudy.3 mph68%29.95 "Hg4 mi
1:00 PM61 °FMostly cloudy.6 mph68%29.98 "Hg4 mi
12:00 PM61 °FMostly cloudy.6 mph68%30.04 "Hg4 mi
11:00 AM61 °FMostly cloudy.3 mph68%30.07 "HgN/A
10:00 AM59 °FMostly cloudy.3 mph68%30.07 "HgN/A
9:00 AM57 °FMostly cloudy.6 mph72%30.07 "Hg4 mi
8:00 AM57 °FMostly cloudy.6 mph72%30.04 "HgN/A
Weather by CustomWeather, © 2014

See weather overviewHow to use our weather pages